Regional Weather Roundup
Issued by NWS

Home | Current Version | Previous Version | Graphics & Text | Print | Product List | Glossary On
Versions: 1 2 3 4 5 6 7 8 9 10 11 12 13 14 15 16 17 18 19 20 21 22 23 24 25 26 27 28 29 30 31 32 33 34 35 36 37 38 39 40 41 42 43 44 45 46 47 48 49 50
000
ASUS44 KMEG 220410
RWRTN
TENNESSEE HOURLY STATE WEATHER ROUNDUP
NATIONAL WEATHER SERVICE MEMPHIS TN
1100 PM CDT WED JUN 21 2017

TNZ002-004-019-021-049-052-054-088>092-220500-
WEST TENNESSEE

CITY           SKY/WX    TMP DP  RH WIND       PRES   REMARKS
MEMPHIS INTL   LGT RAIN  75  73  93 SE10      29.92F
NWS MEMPHIS      N/A     76 N/A N/A MISG        N/A
JACKSON        CLOUDY    76  70  82 VRB3      29.97S
SOMERVILLE     CLOUDY    75  70  83 VRB5G14   29.94F
COVINGTON      CLOUDY    77  70  78 SE12      29.94S
UNION CITY     CLEAR     77  70  78 SE8       29.95S
BOLIVAR        CLOUDY    75  70  83 E5        29.96S
PARIS          PTCLDY    75  70  83 S8        29.97F
HUNTINGDON     CLOUDY    75  70  83 SE6       29.98S
LEXINGTON      PTCLDY    75  68  78 CALM      30.00R
SELMER         CLOUDY    73  70  88 SE7       29.99S
SAVANNAH       CLOUDY    75  70  83 S6G13     29.99S
$$

TNZ008-025-027-028-033-062-065-066-220500-
NORTH MIDDLE TENNESSEE

CITY           SKY/WX    TMP DP  RH WIND       PRES   REMARKS
NASHVILLE      CLOUDY    76  68  76 S8        30.04S
PORTLAND       CLEAR     75  68  78 S7        30.02S
CLARKSVILLE    CLOUDY    76  67  73 S3        30.00F
SMYRNA         MOCLDY    76  69  79 S6        30.05S
COOKEVILLE     CLEAR     73  68  83 S3        30.07S
GALLATIN       CLEAR     75  70  83 S5        30.05S
CROSSVILLE     CLOUDY    70  66  87 S3        30.14R
$$

TNZ061-075-076-078-094-096-097-220500-
SOUTH MIDDLE TENNESSEE

CITY           SKY/WX    TMP DP  RH WIND       PRES   REMARKS
FAYETTEVILLE   CLOUDY    73  68  83 SE6       30.05F
TULLAHOMA      CLEAR     73  64  73 SE5       30.08S
WINCHESTER     MOCLDY    73  66  78 SE5       30.07S
MCMINNVILLE    CLEAR     73  70  88 CALM      30.08R
COLUMBIA       PTCLDY    75  70  83 CALM      30.01S
SHELBYVILLE    CLEAR     75  68  78 S6        30.05S
$$

TNZ017-018-042-046-047-220500-
NORTHEAST TENNESSEE

CITY           SKY/WX    TMP DP  RH WIND       PRES   REMARKS
TRI CITIES     CLOUDY    68  64  87 CALM      30.12R
ELIZABETHTON   CLOUDY    66  63  88 CALM      30.14R
$$

TNZ012-013-036-069-073-074-220500-
CENTRAL EAST TENNESSEE

CITY           SKY/WX    TMP DP  RH WIND       PRES   REMARKS
KNOXVILLE      CLOUDY    73  67  81 SW5       30.09S
OAK RIDGE      CLOUDY    76  67  73 VRB3      30.11R
DOWNTOWN KNOXV   N/A     73  68  83 CALM      30.08S
GATLINBURG     CLEAR     70  66  88 CALM      30.10R
MORRISTOWN     CLEAR     72  68  88 SW6       30.10S
JACKSBORO      CLEAR     70  68  94 CALM      30.12S
$$

TNZ083-085-099-220500-
SOUTHEAST TENNESSEE

CITY           SKY/WX    TMP DP  RH WIND       PRES   REMARKS
CHATTANOOGA    CLOUDY    75  68  78 CALM      30.10R
$$

SKY/WX REPORTED AS FAIR MEANS FEW OR NO CLOUDS BELOW
12 THOUSAND FEET.





USA.gov is the U.S. government's official web portal to all federal, state and local government web resources and services.